TimeCDT,TemperatureF,Dew PointF,Humidity,Sea Level PressureIn,VisibilityMPH,Wind Direction,Wind SpeedMPH,Gust SpeedMPH,PrecipitationIn,Events,Conditions,WindDirDegrees,DateUTC
12:00 AM,46.4,42.8,87,30.20,7.0,Calm,Calm,-,N/A,,Clear,0,2014-03-10 05:00:00
12:20 AM,44.6,42.8,93,30.20,5.0,Calm,Calm,-,N/A,,Clear,0,2014-03-10 05:20:00
12:40 AM,44.6,41.0,87,30.20,4.0,ESE,3.5,-,N/A,,Clear,110,2014-03-10 05:40:00
1:00 AM,44.6,42.8,93,30.19,5.0,SE,3.5,-,N/A,,Clear,140,2014-03-10 06:00:00
1:20 AM,42.8,41.0,93,30.18,4.0,Calm,Calm,-,N/A,,Clear,0,2014-03-10 06:20:00
1:40 AM,42.8,39.2,87,30.18,1.8,Calm,Calm,-,N/A,,Unknown,0,2014-03-10 06:40:00
2:00 AM,41.0,39.2,93,30.18,1.5,Calm,Calm,-,N/A,,Unknown,0,2014-03-10 07:00:00
2:20 AM,41.0,39.2,93,30.17,0.2,Calm,Calm,-,N/A,,Unknown,0,2014-03-10 07:20:00
2:43 AM,41.0,39.2,93,30.17,0.2,Calm,Calm,-,N/A,,Unknown,0,2014-03-10 07:43:00
3:00 AM,39.2,37.4,93,30.17,0.2,Calm,Calm,-,N/A,,Unknown,0,2014-03-10 08:00:00
3:20 AM,37.4,35.6,93,30.16,0.2,SSW,3.5,-,N/A,,Unknown,200,2014-03-10 08:20:00
3:40 AM,37.4,35.6,93,30.16,0.2,SSW,3.5,-,N/A,,Unknown,200,2014-03-10 08:40:00
4:00 AM,37.4,37.4,100,30.15,0.2,SW,4.6,-,N/A,,Overcast,220,2014-03-10 09:00:00
4:20 AM,39.2,37.4,93,30.15,0.2,SW,4.6,-,N/A,,Overcast,220,2014-03-10 09:20:00
4:40 AM,39.2,37.4,93,30.14,0.2,SSW,3.5,-,N/A,,Overcast,200,2014-03-10 09:40:00
5:00 AM,39.2,37.4,93,30.13,0.2,Calm,Calm,-,N/A,,Overcast,0,2014-03-10 10:00:00
5:20 AM,37.4,37.4,100,30.13,0.2,Calm,Calm,-,N/A,,Overcast,0,2014-03-10 10:20:00
5:40 AM,37.4,35.6,93,30.13,0.2,Calm,Calm,-,N/A,,Overcast,0,2014-03-10 10:40:00
6:00 AM,37.4,37.4,100,30.13,0.2,SSW,3.5,-,N/A,,Overcast,210,2014-03-10 11:00:00
6:23 AM,37.4,35.6,93,30.13,0.2,Calm,Calm,-,N/A,,Overcast,0,2014-03-10 11:23:00
6:40 AM,37.4,35.6,93,30.13,0.2,Calm,Calm,-,N/A,,Overcast,0,2014-03-10 11:40:00
7:00 AM,37.4,35.6,93,30.13,0.2,Calm,Calm,-,N/A,,Overcast,0,2014-03-10 12:00:00
7:20 AM,37.4,35.6,93,30.13,0.2,NE,3.5,-,N/A,,Overcast,40,2014-03-10 12:20:00
7:40 AM,37.4,37.4,100,30.13,0.2,Calm,Calm,-,N/A,,Overcast,0,2014-03-10 12:40:00
8:00 AM,39.2,37.4,93,30.13,0.2,Calm,Calm,-,N/A,,Overcast,0,2014-03-10 13:00:00
8:20 AM,39.2,37.4,93,30.14,0.2,Calm,Calm,-,N/A,,Overcast,0,2014-03-10 13:20:00
8:40 AM,41.0,39.2,93,30.14,0.2,Calm,Calm,-,N/A,,Overcast,0,2014-03-10 13:40:00
9:00 AM,42.8,39.2,87,30.13,0.2,Calm,Calm,-,N/A,,Overcast,0,2014-03-10 14:00:00
9:20 AM,42.8,42.8,100,30.14,0.2,Calm,Calm,-,N/A,,Overcast,0,2014-03-10 14:20:00
9:40 AM,44.6,42.8,93,30.14,0.5,Calm,Calm,-,N/A,,Overcast,0,2014-03-10 14:40:00
10:01 AM,46.4,44.6,93,30.14,1.2,Calm,Calm,-,N/A,,Overcast,0,2014-03-10 15:01:00
10:22 AM,48.2,46.4,93,30.14,4.0,Calm,Calm,-,N/A,,Overcast,0,2014-03-10 15:22:00
10:40 AM,50.0,48.2,94,30.14,7.0,Calm,Calm,-,N/A,,Scattered Clouds,0,2014-03-10 15:40:00
11:01 AM,51.8,48.2,88,30.13,7.0,Calm,Calm,-,N/A,,Clear,0,2014-03-10 16:01:00
11:22 AM,55.4,46.4,72,30.12,10.0,WSW,5.8,-,N/A,,Clear,250,2014-03-10 16:22:00
11:40 AM,57.2,46.4,67,30.12,10.0,West,6.9,-,N/A,,Clear,260,2014-03-10 16:40:00
12:00 PM,60.8,46.4,59,30.10,10.0,SW,3.5,-,N/A,,Clear,220,2014-03-10 17:00:00
12:20 PM,60.8,46.4,59,30.10,10.0,SSW,3.5,-,N/A,,Clear,200,2014-03-10 17:20:00
12:40 PM,62.6,44.6,52,30.09,10.0,SSW,8.1,-,N/A,,Clear,200,2014-03-10 17:40:00
1:00 PM,64.4,44.6,49,30.08,10.0,South,6.9,-,N/A,,Clear,190,2014-03-10 18:00:00
1:20 PM,66.2,44.6,46,30.07,10.0,SW,4.6,-,N/A,,Clear,220,2014-03-10 18:20:00
1:40 PM,69.8,44.6,40,30.05,10.0,South,5.8,-,N/A,,Clear,170,2014-03-10 18:40:00
2:00 PM,69.8,42.8,38,30.03,10.0,South,4.6,-,N/A,,Clear,180,2014-03-10 19:00:00
2:20 PM,71.6,37.4,29,30.02,10.0,WSW,8.1,-,N/A,,Clear,250,2014-03-10 19:20:00
2:40 PM,73.4,39.2,29,30.00,10.0,West,8.1,16.1,N/A,,Clear,270,2014-03-10 19:40:00
3:00 PM,73.4,39.2,29,29.98,10.0,West,5.8,-,N/A,,Clear,280,2014-03-10 20:00:00
3:20 PM,73.4,37.4,27,29.97,10.0,South,9.2,-,N/A,,Clear,190,2014-03-10 20:20:00
3:40 PM,73.4,37.4,27,29.95,10.0,SW,8.1,-,N/A,,Clear,230,2014-03-10 20:40:00
4:00 PM,75.2,39.2,27,29.94,10.0,South,11.5,16.1,N/A,,Clear,190,2014-03-10 21:00:00
4:20 PM,73.4,39.2,29,29.94,10.0,SSE,10.4,-,N/A,,Clear,160,2014-03-10 21:20:00
4:40 PM,73.4,37.4,27,29.92,10.0,SSW,12.7,17.3,N/A,,Clear,200,2014-03-10 21:40:00
5:00 PM,73.4,35.6,25,29.92,10.0,SSW,9.2,-,N/A,,Clear,210,2014-03-10 22:00:00
5:20 PM,73.4,37.4,27,29.92,10.0,SSW,9.2,-,N/A,,Clear,200,2014-03-10 22:20:00
5:40 PM,73.4,37.4,27,29.91,10.0,SW,9.2,-,N/A,,Clear,230,2014-03-10 22:40:00
6:00 PM,73.4,39.2,29,29.90,10.0,SSW,9.2,-,N/A,,Clear,200,2014-03-10 23:00:00
6:20 PM,73.4,39.2,29,29.90,10.0,South,8.1,-,N/A,,Clear,190,2014-03-10 23:20:00
6:40 PM,71.6,39.2,31,29.90,10.0,South,8.1,-,N/A,,Clear,180,2014-03-10 23:40:00
7:00 PM,69.8,39.2,33,29.90,10.0,South,5.8,-,N/A,,Clear,190,2014-03-11 00:00:00
7:20 PM,66.2,39.2,37,29.89,10.0,South,8.1,-,N/A,,Clear,180,2014-03-11 00:20:00
7:40 PM,62.6,41.0,45,29.89,10.0,South,6.9,-,N/A,,Clear,180,2014-03-11 00:40:00
8:00 PM,60.8,41.0,48,29.90,10.0,South,6.9,-,N/A,,Clear,180,2014-03-11 01:00:00
8:20 PM,60.8,41.0,48,29.90,10.0,South,4.6,-,N/A,,Clear,170,2014-03-11 01:20:00
8:40 PM,59.0,41.0,51,29.90,10.0,Calm,Calm,-,N/A,,Clear,0,2014-03-11 01:40:00
9:00 PM,59.0,41.0,51,29.90,10.0,SSE,4.6,-,N/A,,Clear,160,2014-03-11 02:00:00
9:20 PM,57.2,42.8,59,29.90,10.0,SSE,3.5,-,N/A,,Clear,150,2014-03-11 02:20:00
9:40 PM,55.4,41.0,58,29.90,10.0,SSE,4.6,-,N/A,,Clear,160,2014-03-11 02:40:00
10:00 PM,55.4,41.0,58,29.90,10.0,Calm,Calm,-,N/A,,Clear,0,2014-03-11 03:00:00
10:20 PM,55.4,41.0,58,29.90,10.0,SSE,4.6,-,N/A,,Clear,150,2014-03-11 03:20:00
10:40 PM,55.4,41.0,58,29.90,10.0,SSE,3.5,-,N/A,,Clear,160,2014-03-11 03:40:00
11:00 PM,55.4,41.0,58,29.89,10.0,South,5.8,-,N/A,,Clear,170,2014-03-11 04:00:00
11:20 PM,55.4,42.8,63,29.89,10.0,South,5.8,-,N/A,,Clear,170,2014-03-11 04:20:00
11:40 PM,55.4,42.8,63,29.89,10.0,South,5.8,-,N/A,,Clear,170,2014-03-11 04:40:00